Location: Unspecified
(51.6250°N, 0.8230°E)
Time: 06:29:16
(UTC+00:00)

ISS - Pass Details

Date: 30 January 2021
Orbit: 417 x 422 km, 51.6° (Epoch: 02 March)

Event Time Altitude Azimuth Distance (km) Brightness Sun altitude
Rises 19:24:50 0° 284° (WNW) 2,377 1.4 -25.1°
Reaches altitude 10° 19:27:00 10° 277° (W) 1,511 0.1 -25.5°
Enters shadow 19:29:00 29° 254° (WSW) 810 -1.8 -25.8°
